When you browse on this site, cookies collect data to enhance your experience and personalize the content and advertising you see.
Visit our Privacy Policy to learn more. By continuing to use the site, you agree to this use of cookies and data.
  • In Austria
  • List of Countries
  • For 7 days
  • Water Temperature
  • Weather Map
  • News
  • Weather Widgets
  • user-avatar
    Login

    Hourly Weather Plovdiv

    Today, 24 October, Thursday

    Time Temperature Precipitation Wind Pressure Humidity
    00:00 +16°C° 0 mm 1 mps 742 mmHg 44%
    01:00 +15°C° 0 mm 1 mps 742 mmHg 44%
    02:00 +15°C° 0 mm 1 mps 742 mmHg 44%
    03:00 +15°C° 0 mm 1 mps 742 mmHg 45%
    04:00 +15°C° 0 mm 1 mps 741 mmHg 45%
    05:00 +14°C° 0 mm 1 mps 741 mmHg 46%
    06:00 +15°C° 0 mm 1 mps 741 mmHg 45%
    07:00 +16°C° 0 mm 1 mps 742 mmHg 44%
    08:00 +16°C° 0 mm 0 mps 742 mmHg 43%
    09:00 +20°C° 0 mm 1 mps 742 mmHg 38%
    10:00 +23°C° 0 mm 1 mps 742 mmHg 34%
    11:00 +25°C° 0 mm 1 mps 741 mmHg 29%
    12:00 +25°C° 0 mm 1 mps 741 mmHg 28%
    13:00 +26°C° 0 mm 2 mps 741 mmHg 27%
    14:00 +27°C° 0 mm 2 mps 740 mmHg 26%
    15:00 +25°C° 0 mm 2 mps 740 mmHg 30%
    16:00 +24°C° 0 mm 1 mps 739 mmHg 35%
    17:00 +22°C° 0 mm 1 mps 739 mmHg 40%
    18:00 +21°C° 0 mm 1 mps 739 mmHg 43%
    19:00 +19°C° 0 mm 1 mps 739 mmHg 46%
    20:00 +18°C° 0 mm 1 mps 740 mmHg 49%
    21:00 +18°C° 0 mm 1 mps 740 mmHg 50%
    22:00 +16°C° 0 mm 1 mps 740 mmHg 51%
    23:00 +16°C° 0 mm 1 mps 740 mmHg 52%

    Tomorrow, 25 October, Friday

    Time Temperature Precipitation Wind Pressure Humidity
    00:00 +15°C° 0 mm 1 mps 740 mmHg 53%
    01:00 +15°C° 0 mm 1 mps 740 mmHg 53%
    02:00 +15°C° 0 mm 1 mps 740 mmHg 54%
    03:00 +14°C° 0 mm 1 mps 740 mmHg 54%
    04:00 +14°C° 0 mm 1 mps 739 mmHg 54%
    05:00 +14°C° 0 mm 1 mps 739 mmHg 54%
    06:00 +15°C° 0 mm 1 mps 740 mmHg 51%
    07:00 +16°C° 0 mm 1 mps 740 mmHg 49%
    08:00 +16°C° 0 mm 0 mps 740 mmHg 46%
    09:00 +20°C° 0 mm 1 mps 740 mmHg 41%
    10:00 +22°C° 0 mm 1 mps 740 mmHg 36%
    11:00 +25°C° 0 mm 1 mps 741 mmHg 31%
    12:00 +25°C° 0 mm 1 mps 740 mmHg 29%
    13:00 +26°C° 0 mm 2 mps 740 mmHg 27%
    14:00 +27°C° 0 mm 2 mps 740 mmHg 25%
    15:00 +25°C° 0 mm 1 mps 740 mmHg 30%
    16:00 +23°C° 0 mm 1 mps 740 mmHg 34%
    17:00 +22°C° 0 mm 1 mps 740 mmHg 38%
    18:00 +20°C° 0 mm 1 mps 740 mmHg 39%
    19:00 +19°C° 0 mm 1 mps 740 mmHg 40%
    20:00 +18°C° 0 mm 1 mps 741 mmHg 41%
    21:00 +18°C° 0 mm 1 mps 741 mmHg 42%
    22:00 +16°C° 0 mm 1 mps 741 mmHg 42%
    23:00 +16°C° 0 mm 1 mps 742 mmHg 42%

    Day after tomorrow, 26 October, Saturday

    Time Temperature Precipitation Wind Pressure Humidity
    00:00 +16°C° 0 mm 1 mps 742 mmHg 44%
    01:00 +15°C° 0 mm 1 mps 742 mmHg 45%
    02:00 +15°C° 0 mm 1 mps 742 mmHg 46%
    03:00 +15°C° 0 mm 1 mps 742 mmHg 48%
    04:00 +15°C° 0 mm 1 mps 742 mmHg 49%
    05:00 +14°C° 0 mm 1 mps 742 mmHg 50%
    06:00 +15°C° 0 mm 1 mps 743 mmHg 49%
    07:00 +16°C° 0 mm 1 mps 743 mmHg 48%
    08:00 +18°C° 0 mm 1 mps 743 mmHg 47%
    09:00 +20°C° 0 mm 1 mps 743 mmHg 41%
    10:00 +23°C° 0 mm 1 mps 744 mmHg 34%
    11:00 +25°C° 0 mm 1 mps 744 mmHg 28%
    12:00 +26°C° 0 mm 1 mps 744 mmHg 27%
    13:00 +26°C° 0 mm 2 mps 743 mmHg 25%
    14:00 +27°C° 0 mm 2 mps 743 mmHg 23%
    15:00 +25°C° 0 mm 2 mps 743 mmHg 27%
    16:00 +24°C° 0 mm 1 mps 743 mmHg 31%
    17:00 +22°C° 0 mm 1 mps 742 mmHg 35%
    18:00 +21°C° 0 mm 1 mps 742 mmHg 37%
    19:00 +19°C° 0 mm 1 mps 743 mmHg 38%
    20:00 +18°C° 0 mm 1 mps 743 mmHg 40%
    21:00 +18°C° 0 mm 1 mps 743 mmHg 39%
    22:00 +16°C° 0 mm 1 mps 743 mmHg 39%
    23:00 +16°C° 0 mm 1 mps 743 mmHg 38%

    27 October, Sunday

    Time Temperature Precipitation Wind Pressure Humidity
    00:00 +16°C° 0 mm 1 mps 743 mmHg 38%
    01:00 +15°C° 0 mm 1 mps 743 mmHg 38%
    02:00 +15°C° 0 mm 1 mps 743 mmHg 38%
    03:00 +15°C° 0 mm 1 mps 743 mmHg 38%
    04:00 +15°C° 0 mm 1 mps 743 mmHg 37%
    05:00 +15°C° 0 mm 1 mps 742 mmHg 37%
    06:00 +15°C° 0 mm 1 mps 742 mmHg 36%
    07:00 +16°C° 0 mm 1 mps 743 mmHg 36%
    08:00 +18°C° 0 mm 1 mps 743 mmHg 35%
    09:00 +20°C° 0 mm 1 mps 743 mmHg 31%
    10:00 +23°C° 0 mm 1 mps 743 mmHg 27%
    11:00 +26°C° 0 mm 1 mps 743 mmHg 22%
    12:00 +26°C° 0 mm 1 mps 742 mmHg 21%
    13:00 +27°C° 0 mm 1 mps 742 mmHg 20%
    14:00 +27°C° 0 mm 2 mps 741 mmHg 19%
    15:00 +26°C° 0 mm 1 mps 741 mmHg 24%
    16:00 +24°C° 0 mm 1 mps 740 mmHg 28%
    17:00 +22°C° 0 mm 1 mps 740 mmHg 32%
    18:00 +21°C° 0 mm 1 mps 740 mmHg 33%
    19:00 +19°C° 0 mm 1 mps 740 mmHg 34%
    20:00 +18°C° 0 mm 1 mps 740 mmHg 34%
    21:00 +18°C° 0 mm 1 mps 740 mmHg 34%
    22:00 +16°C° 0 mm 1 mps 740 mmHg 35%
    23:00 +16°C° 0 mm 1 mps 740 mmHg 35%

    28 October, Monday

    Time Temperature Precipitation Wind Pressure Humidity
    00:00 +15°C° 0 mm 1 mps 740 mmHg 35%
    01:00 +15°C° 0 mm 1 mps 739 mmHg 36%
    02:00 +15°C° 0 mm 1 mps 739 mmHg 36%
    03:00 +14°C° 0 mm 1 mps 739 mmHg 37%
    04:00 +14°C° 0 mm 1 mps 739 mmHg 37%
    05:00 +14°C° 0 mm 1 mps 738 mmHg 38%
    06:00 +14°C° 0 mm 1 mps 738 mmHg 37%
    07:00 +15°C° 0 mm 1 mps 738 mmHg 37%
    08:00 +16°C° 0 mm 1 mps 738 mmHg 36%
    09:00 +19°C° 0 mm 1 mps 738 mmHg 32%
    10:00 +22°C° 0 mm 1 mps 738 mmHg 27%
    11:00 +25°C° 0 mm 1 mps 738 mmHg 23%
    12:00 +25°C° 0 mm 1 mps 737 mmHg 22%
    13:00 +26°C° 0 mm 1 mps 737 mmHg 21%
    14:00 +26°C° 0 mm 2 mps 737 mmHg 20%
    15:00 +24°C° 0 mm 1 mps 736 mmHg 24%
    16:00 +23°C° 0 mm 1 mps 736 mmHg 28%
    17:00 +21°C° 0 mm 1 mps 735 mmHg 32%
    18:00 +20°C° 0 mm 1 mps 736 mmHg 33%
    19:00 +19°C° 0 mm 1 mps 736 mmHg 34%
    20:00 +18°C° 0 mm 1 mps 736 mmHg 35%
    21:00 +16°C° 0 mm 1 mps 736 mmHg 35%
    22:00 +16°C° 0 mm 1 mps 736 mmHg 35%
    23:00 +16°C° 0 mm 1 mps 736 mmHg 35%

    29 October, Tuesday

    Time Temperature Precipitation Wind Pressure Humidity
    00:00 +16°C° 0 mm 1 mps 736 mmHg 35%
    01:00 +15°C° 0 mm 1 mps 736 mmHg 36%
    02:00 +15°C° 0 mm 1 mps 736 mmHg 36%
    03:00 +15°C° 0 mm 1 mps 736 mmHg 36%
    04:00 +15°C° 0 mm 1 mps 736 mmHg 37%
    05:00 +15°C° 0 mm 1 mps 736 mmHg 37%
    06:00 +15°C° 0 mm 1 mps 736 mmHg 37%
    07:00 +16°C° 0 mm 1 mps 736 mmHg 37%
    08:00 +16°C° 0 mm 1 mps 737 mmHg 37%
    09:00 +19°C° 0 mm 1 mps 737 mmHg 33%
    10:00 +22°C° 0 mm 1 mps 737 mmHg 29%
    11:00 +24°C° 0 mm 1 mps 737 mmHg 25%
    12:00 +24°C° 0 mm 1 mps 737 mmHg 24%
    13:00 +25°C° 0 mm 1 mps 737 mmHg 23%
    14:00 +26°C° 0 mm 1 mps 736 mmHg 22%
    15:00 +24°C° 0 mm 1 mps 736 mmHg 26%
    16:00 +22°C° 0 mm 1 mps 736 mmHg 30%
    17:00 +21°C° 0 mm 1 mps 735 mmHg 33%
    18:00 +20°C° 0 mm 1 mps 736 mmHg 36%
    19:00 +18°C° 0 mm 1 mps 736 mmHg 38%
    20:00 +16°C° 0 mm 1 mps 736 mmHg 41%
    21:00 +16°C° 0 mm 1 mps 736 mmHg 42%
    22:00 +15°C° 0 mm 1 mps 736 mmHg 43%
    23:00 +15°C° 0 mm 1 mps 737 mmHg 44%

    30 October, Wednesday

    Time Temperature Precipitation Wind Pressure Humidity
    00:00 +15°C° 0 mm 1 mps 736 mmHg 44%
    01:00 +14°C° 0 mm 2 mps 736 mmHg 44%
    02:00 +14°C° 0 mm 2 mps 736 mmHg 45%
    03:00 +14°C° 0 mm 2 mps 736 mmHg 44%
    04:00 +14°C° 0 mm 2 mps 736 mmHg 44%
    05:00 +14°C° 0 mm 2 mps 736 mmHg 44%
    06:00 +14°C° 0 mm 1 mps 736 mmHg 43%
    07:00 +15°C° 0 mm 1 mps 736 mmHg 41%
    08:00 +15°C° 0 mm 1 mps 736 mmHg 40%
    09:00 +19°C° 0 mm 1 mps 736 mmHg 35%
    10:00 +22°C° 0 mm 1 mps 736 mmHg 29%
    11:00 +24°C° 0 mm 1 mps 736 mmHg 24%
    12:00 +25°C° 0 mm 1 mps 736 mmHg 24%
    13:00 +25°C° 0 mm 1 mps 736 mmHg 23%
    14:00 +26°C° 0 mm 2 mps 735 mmHg 22%
    15:00 +24°C° 0 mm 2 mps 735 mmHg 26%
    16:00 +22°C° 0 mm 1 mps 735 mmHg 30%
    17:00 +21°C° 0 mm 1 mps 734 mmHg 34%
    18:00 +19°C° 0 mm 1 mps 735 mmHg 36%
    19:00 +18°C° 0 mm 1 mps 735 mmHg 39%
    20:00 +16°C° 0 mm 2 mps 735 mmHg 42%
    21:00 +16°C° 0 mm 2 mps 735 mmHg 43%
    22:00 +16°C° 0 mm 2 mps 735 mmHg 44%
    23:00 +15°C° 0 mm 2 mps 735 mmHg 45%
    Show more